Time,TemperatureF,DewpointF,PressureIn,WindDirection,WindDirectionDegrees,WindSpeedMPH,WindSpeedGustMPH,Humidity,HourlyPrecipIn,Conditions,Clouds,dailyrainin,SoftwareType,DateUTC
2013-12-03 00:02:00,41.0,37.4,29.83,North,359,6.9,-999.9,87,-99.99,,,-99.99,,2013-12-03 05:02:00,
2013-12-03 00:08:00,41.0,37.4,29.83,North,359,6.9,-999.9,87,-99.99,,,-99.99,,2013-12-03 05:08:00,
2013-12-03 00:14:00,41.0,37.4,29.82,North,1,8.1,-999.9,87,-99.99,,,-99.99,,2013-12-03 05:14:00,
2013-12-03 00:20:00,41.0,37.4,29.82,North,1,8.1,-999.9,87,-99.99,,,-99.99,,2013-12-03 05:20:00,
2013-12-03 00:26:00,41.0,39.2,29.82,North,0,6.9,-999.9,93,-99.99,,,-99.99,,2013-12-03 05:26:00,
2013-12-03 00:32:00,41.0,37.4,29.82,North,359,5.8,-999.9,87,-99.99,,,-99.99,,2013-12-03 05:32:00,
2013-12-03 00:38:00,41.0,37.4,29.82,North,359,5.8,-999.9,87,-99.99,,,-99.99,,2013-12-03 05:38:00,
2013-12-03 00:44:00,41.0,37.4,29.82,NNE,17,3.5,-999.9,87,-99.99,,,-99.99,,2013-12-03 05:44:00,
2013-12-03 00:50:00,41.0,37.4,29.82,NNE,17,3.5,-999.9,87,-99.99,,,-99.99,,2013-12-03 05:50:00,
2013-12-03 00:56:00,41.0,37.4,29.81,North,359,5.8,-999.9,87,-99.99,,,-99.99,,2013-12-03 05:56:00,
2013-12-03 01:02:00,41.0,37.4,29.81,North,4,3.5,-999.9,87,-99.99,,,-99.99,,2013-12-03 06:02:00,
2013-12-03 01:08:00,41.0,37.4,29.81,North,4,3.5,-999.9,87,-99.99,,,-99.99,,2013-12-03 06:08:00,
2013-12-03 01:14:00,41.0,37.4,29.81,NNE,16,4.6,-999.9,87,-99.99,,,-99.99,,2013-12-03 06:14:00,
2013-12-03 01:20:00,41.0,37.4,29.81,NNE,16,4.6,-999.9,87,-99.99,,,-99.99,,2013-12-03 06:20:00,
2013-12-03 01:26:00,41.0,37.4,29.82,North,356,6.9,-999.9,87,-99.99,,,-99.99,,2013-12-03 06:26:00,
2013-12-03 01:32:00,41.0,37.4,29.82,North,356,6.9,-999.9,87,-99.99,,,-99.99,,2013-12-03 06:32:00,
2013-12-03 01:38:00,41.0,37.4,29.82,North,356,6.9,-999.9,87,-99.99,,,-99.99,,2013-12-03 06:38:00,
2013-12-03 02:02:00,39.2,37.4,29.83,North,0,0.0,-999.9,93,-99.99,,,-99.99,,2013-12-03 07:02:00,
2013-12-03 02:08:00,39.2,37.4,29.83,North,0,0.0,-999.9,93,-99.99,,,-99.99,,2013-12-03 07:08:00,
2013-12-03 02:14:00,39.2,37.4,29.83,North,0,0.0,-999.9,93,-99.99,,,-99.99,,2013-12-03 07:14:00,
2013-12-03 02:20:00,39.2,37.4,29.83,North,0,0.0,-999.9,93,-99.99,,,-99.99,,2013-12-03 07:20:00,
2013-12-03 02:26:00,39.2,37.4,29.83,NE,48,4.6,-999.9,93,-99.99,,,-99.99,,2013-12-03 07:26:00,
2013-12-03 02:32:00,39.2,37.4,29.83,NE,46,1.2,-999.9,93,-99.99,,,-99.99,,2013-12-03 07:32:00,
2013-12-03 02:38:00,39.2,37.4,29.83,NE,46,1.2,-999.9,93,-99.99,,,-99.99,,2013-12-03 07:38:00,
2013-12-03 02:44:00,39.2,37.4,29.83,North,0,0.0,-999.9,93,-99.99,,,-99.99,,2013-12-03 07:44:00,
2013-12-03 02:50:00,39.2,37.4,29.83,North,0,0.0,-999.9,93,-99.99,,,-99.99,,2013-12-03 07:50:00,
2013-12-03 02:56:00,39.2,37.4,29.83,North,0,0.0,-999.9,93,-99.99,,,-99.99,,2013-12-03 07:56:00,
2013-12-03 03:02:00,39.2,37.4,29.83,NE,51,2.3,-999.9,93,-99.99,,,-99.99,,2013-12-03 08:02:00,
2013-12-03 03:08:00,39.2,37.4,29.83,NE,51,2.3,-999.9,93,-99.99,,,-99.99,,2013-12-03 08:08:00,
2013-12-03 03:14:00,39.2,37.4,29.83,NE,39,4.6,-999.9,93,-99.99,,,-99.99,,2013-12-03 08:14:00,
2013-12-03 03:20:00,39.2,37.4,29.83,NE,39,4.6,-999.9,93,-99.99,,,-99.99,,2013-12-03 08:20:00,
2013-12-03 03:26:00,39.2,37.4,29.83,North,0,0.0,-999.9,93,-99.99,,,-99.99,,2013-12-03 08:26:00,
2013-12-03 03:32:00,39.2,37.4,29.83,NE,45,1.2,-999.9,93,-99.99,,,-99.99,,2013-12-03 08:32:00,
2013-12-03 03:38:00,39.2,37.4,29.83,NE,45,1.2,-999.9,93,-99.99,,,-99.99,,2013-12-03 08:38:00,
2013-12-03 03:44:00,39.2,37.4,29.83,NNE,20,6.9,-999.9,93,-99.99,,,-99.99,,2013-12-03 08:44:00,
2013-12-03 03:50:00,39.2,37.4,29.83,NNE,20,6.9,-999.9,93,-99.99,,,-99.99,,2013-12-03 08:50:00,
2013-12-03 03:56:00,39.2,37.4,29.83,NNE,12,5.8,-999.9,93,-99.99,,,-99.99,,2013-12-03 08:56:00,
2013-12-03 04:02:00,39.2,37.4,29.83,NNE,28,4.6,-999.9,93,-99.99,,,-99.99,,2013-12-03 09:02:00,
2013-12-03 04:08:00,39.2,37.4,29.83,NNE,28,4.6,-999.9,93,-99.99,,,-99.99,,2013-12-03 09:08:00,
2013-12-03 04:14:00,39.2,37.4,29.83,North,357,4.6,-999.9,93,-99.99,,,-99.99,,2013-12-03 09:14:00,
2013-12-03 04:20:00,39.2,37.4,29.83,North,357,4.6,-999.9,93,-99.99,,,-99.99,,2013-12-03 09:20:00,
2013-12-03 04:26:00,39.2,37.4,29.83,NNE,32,3.5,-999.9,93,-99.99,,,-99.99,,2013-12-03 09:26:00,
2013-12-03 04:32:00,39.2,37.4,29.83,North,359,2.3,-999.9,93,-99.99,,,-99.99,,2013-12-03 09:32:00,
2013-12-03 04:38:00,39.2,37.4,29.83,North,359,2.3,-999.9,93,-99.99,,,-99.99,,2013-12-03 09:38:00,
2013-12-03 04:44:00,39.2,37.4,29.83,North,0,0.0,-999.9,93,-99.99,,,-99.99,,2013-12-03 09:44:00,
2013-12-03 04:50:00,39.2,37.4,29.83,North,0,0.0,-999.9,93,-99.99,,,-99.99,,2013-12-03 09:50:00,
2013-12-03 04:56:00,39.2,37.4,29.83,NE,40,0.0,-999.9,93,-99.99,,,-99.99,,2013-12-03 09:56:00,
2013-12-03 05:02:00,39.2,37.4,29.83,North,352,2.3,-999.9,93,-99.99,,,-99.99,,2013-12-03 10:02:00,
2013-12-03 05:08:00,39.2,37.4,29.83,North,352,2.3,-999.9,93,-99.99,,,-99.99,,2013-12-03 10:08:00,
2013-12-03 05:14:00,39.2,37.4,29.83,North,359,3.5,-999.9,93,-99.99,,,-99.99,,2013-12-03 10:14:00,
2013-12-03 05:20:00,39.2,37.4,29.83,North,359,3.5,-999.9,93,-99.99,,,-99.99,,2013-12-03 10:20:00,
2013-12-03 05:26:00,39.2,37.4,29.82,NNE,15,1.2,-999.9,93,-99.99,,,-99.99,,2013-12-03 10:26:00,
2013-12-03 05:32:00,39.2,37.4,29.83,North,0,0.0,-999.9,93,-99.99,,,-99.99,,2013-12-03 10:32:00,
2013-12-03 05:38:00,39.2,37.4,29.83,North,0,0.0,-999.9,93,-99.99,,,-99.99,,2013-12-03 10:38:00,
2013-12-03 05:44:00,37.4,35.6,29.83,North,0,0.0,-999.9,93,-99.99,,,-99.99,,2013-12-03 10:44:00,
2013-12-03 05:50:00,37.4,35.6,29.83,North,0,0.0,-999.9,93,-99.99,,,-99.99,,2013-12-03 10:50:00,
2013-12-03 05:56:00,37.4,35.6,29.83,North,0,0.0,-999.9,93,-99.99,,,-99.99,,2013-12-03 10:56:00,
2013-12-03 06:02:00,37.4,35.6,29.83,North,0,0.0,-999.9,93,-99.99,,,-99.99,,2013-12-03 11:02:00,
2013-12-03 06:08:00,37.4,35.6,29.83,North,0,0.0,-999.9,93,-99.99,,,-99.99,,2013-12-03 11:08:00,
2013-12-03 06:14:00,37.4,35.6,29.83,ENE,59,0.0,-999.9,93,-99.99,,,-99.99,,2013-12-03 11:14:00,
2013-12-03 06:20:00,37.4,35.6,29.83,ENE,59,0.0,-999.9,93,-99.99,,,-99.99,,2013-12-03 11:20:00,
2013-12-03 06:26:00,37.4,35.6,29.83,NNE,24,1.2,-999.9,93,-99.99,,,-99.99,,2013-12-03 11:26:00,
2013-12-03 06:32:00,37.4,35.6,29.83,North,0,0.0,-999.9,93,-99.99,,,-99.99,,2013-12-03 11:32:00,
2013-12-03 06:38:00,37.4,35.6,29.83,North,0,0.0,-999.9,93,-99.99,,,-99.99,,2013-12-03 11:38:00,
2013-12-03 06:44:00,37.4,35.6,29.83,North,356,3.5,-999.9,93,-99.99,,,-99.99,,2013-12-03 11:44:00,
2013-12-03 06:50:00,37.4,35.6,29.83,North,356,3.5,-999.9,93,-99.99,,,-99.99,,2013-12-03 11:50:00,
2013-12-03 06:56:00,37.4,35.6,29.83,NNW,345,4.6,-999.9,93,-99.99,,,-99.99,,2013-12-03 11:56:00,
2013-12-03 07:02:00,37.4,33.8,29.83,North,10,4.6,-999.9,87,-99.99,,,-99.99,,2013-12-03 12:02:00,
2013-12-03 07:08:00,37.4,33.8,29.83,North,10,4.6,-999.9,87,-99.99,,,-99.99,,2013-12-03 12:08:00,
2013-12-03 07:14:00,39.2,35.6,29.84,North,354,3.5,-999.9,87,-99.99,,,-99.99,,2013-12-03 12:14:00,
2013-12-03 07:20:00,39.2,35.6,29.84,North,354,3.5,-999.9,87,-99.99,,,-99.99,,2013-12-03 12:20:00,
2013-12-03 07:26:00,39.2,35.6,29.84,NNW,333,3.5,-999.9,87,-99.99,,,-99.99,,2013-12-03 12:26:00,
2013-12-03 07:32:00,39.2,35.6,29.84,NNW,330,5.8,-999.9,87,-99.99,,,-99.99,,2013-12-03 12:32:00,
2013-12-03 07:38:00,39.2,35.6,29.84,NNW,330,5.8,-999.9,87,-99.99,,,-99.99,,2013-12-03 12:38:00,
2013-12-03 07:44:00,39.2,33.8,29.85,NNW,333,4.6,-999.9,81,-99.99,,,-99.99,,2013-12-03 12:44:00,
2013-12-03 07:50:00,39.2,33.8,29.85,NNW,333,4.6,-999.9,81,-99.99,,,-99.99,,2013-12-03 12:50:00,
2013-12-03 07:56:00,39.2,33.8,29.85,NNW,333,4.6,-999.9,81,-99.99,,,-99.99,,2013-12-03 12:56:00,
2013-12-03 08:02:00,41.0,35.6,29.84,North,0,0.0,-999.9,81,-99.99,,,-99.99,,2013-12-03 13:02:00,
2013-12-03 08:08:00,41.0,35.6,29.84,North,0,0.0,-999.9,81,-99.99,,,-99.99,,2013-12-03 13:08:00,
2013-12-03 08:14:00,41.0,35.6,29.84,North,358,2.3,-999.9,81,-99.99,,,-99.99,,2013-12-03 13:14:00,
2013-12-03 08:20:00,41.0,35.6,29.84,North,358,2.3,-999.9,81,-99.99,,,-99.99,,2013-12-03 13:20:00,
2013-12-03 08:26:00,41.0,35.6,29.84,NNW,337,2.3,-999.9,81,-99.99,,,-99.99,,2013-12-03 13:26:00,
2013-12-03 08:32:00,42.8,35.6,29.84,NNW,328,5.8,-999.9,76,-99.99,,,-99.99,,2013-12-03 13:32:00,
2013-12-03 08:38:00,42.8,35.6,29.84,NNW,328,5.8,-999.9,76,-99.99,,,-99.99,,2013-12-03 13:38:00,
2013-12-03 08:44:00,42.8,35.6,29.84,NNW,329,3.5,-999.9,76,-99.99,,,-99.99,,2013-12-03 13:44:00,
2013-12-03 08:50:00,42.8,35.6,29.84,NNW,329,3.5,-999.9,76,-99.99,,,-99.99,,2013-12-03 13:50:00,
2013-12-03 08:56:00,42.8,35.6,29.84,NNW,336,5.8,-999.9,76,-99.99,,,-99.99,,2013-12-03 13:56:00,
2013-12-03 09:12:00,42.8,35.6,29.84,NNW,343,3.5,-999.9,76,-99.99,,,-99.99,,2013-12-03 14:12:00,
2013-12-03 09:18:00,42.8,35.6,29.84,NNW,343,3.5,-999.9,76,-99.99,,,-99.99,,2013-12-03 14:18:00,
2013-12-03 09:24:00,44.6,37.4,29.84,NW,320,8.1,-999.9,76,-99.99,,,-99.99,,2013-12-03 14:24:00,
2013-12-03 09:30:00,44.6,37.4,29.84,NW,320,8.1,-999.9,76,-99.99,,,-99.99,,2013-12-03 14:30:00,
2013-12-03 09:36:00,44.6,35.6,29.84,WNW,303,9.2,-999.9,71,-99.99,,,-99.99,,2013-12-03 14:36:00,
2013-12-03 09:42:00,44.6,35.6,29.84,WNW,300,11.5,-999.9,71,-99.99,,,-99.99,,2013-12-03 14:42:00,
2013-12-03 09:48:00,44.6,35.6,29.84,WNW,300,11.5,-999.9,71,-99.99,,,-99.99,,2013-12-03 14:48:00,
2013-12-03 09:54:00,44.6,35.6,29.85,NW,326,10.4,-999.9,71,-99.99,,,-99.99,,2013-12-03 14:54:00,
2013-12-03 10:00:00,44.6,35.6,29.85,NW,326,10.4,-999.9,71,-99.99,,,-99.99,,2013-12-03 15:00:00,
2013-12-03 10:06:00,44.6,35.6,29.85,NNW,329,6.9,-999.9,71,-99.99,,,-99.99,,2013-12-03 15:06:00,
2013-12-03 10:12:00,44.6,35.6,29.84,NNW,337,5.8,-999.9,71,-99.99,,,-99.99,,2013-12-03 15:12:00,
2013-12-03 10:18:00,44.6,35.6,29.84,NNW,337,5.8,-999.9,71,-99.99,,,-99.99,,2013-12-03 15:18:00,
2013-12-03 10:24:00,46.4,35.6,29.84,NW,314,1.2,-999.9,66,-99.99,,,-99.99,,2013-12-03 15:24:00,
2013-12-03 10:30:00,46.4,35.6,29.84,NW,314,1.2,-999.9,66,-99.99,,,-99.99,,2013-12-03 15:30:00,
2013-12-03 10:36:00,46.4,33.8,29.83,NW,322,8.1,-999.9,62,-99.99,,,-99.99,,2013-12-03 15:36:00,
2013-12-03 10:42:00,46.4,33.8,29.83,NNW,332,6.9,-999.9,62,-99.99,,,-99.99,,2013-12-03 15:42:00,
2013-12-03 10:48:00,46.4,33.8,29.83,NNW,332,6.9,-999.9,62,-99.99,,,-99.99,,2013-12-03 15:48:00,
2013-12-03 10:54:00,46.4,33.8,29.83,NW,324,8.1,-999.9,62,-99.99,,,-99.99,,2013-12-03 15:54:00,
2013-12-03 11:00:00,46.4,33.8,29.83,NW,324,8.1,-999.9,62,-99.99,,,-99.99,,2013-12-03 16:00:00,
2013-12-03 11:06:00,48.2,33.8,29.83,WNW,290,6.9,-999.9,58,-99.99,,,-99.99,,2013-12-03 16:06:00,
2013-12-03 11:12:00,48.2,33.8,29.82,NW,311,6.9,-999.9,58,-99.99,,,-99.99,,2013-12-03 16:12:00,
2013-12-03 11:18:00,48.2,33.8,29.82,NW,311,6.9,-999.9,58,-99.99,,,-99.99,,2013-12-03 16:18:00,
2013-12-03 11:24:00,50.0,33.8,29.82,NNW,327,12.7,-999.9,54,-99.99,,,-99.99,,2013-12-03 16:24:00,
2013-12-03 11:30:00,50.0,33.8,29.82,NNW,327,12.7,-999.9,54,-99.99,,,-99.99,,2013-12-03 16:30:00,
2013-12-03 11:36:00,48.2,32.0,29.82,NW,323,10.4,-999.9,54,-99.99,,,-99.99,,2013-12-03 16:36:00,
2013-12-03 11:42:00,50.0,33.8,29.81,North,359,10.4,-999.9,54,-99.99,,,-99.99,,2013-12-03 16:42:00,
2013-12-03 11:48:00,50.0,33.8,29.81,North,359,10.4,-999.9,54,-99.99,,,-99.99,,2013-12-03 16:48:00,
2013-12-03 11:54:00,50.0,33.8,29.81,NNW,336,6.9,-999.9,54,-99.99,,,-99.99,,2013-12-03 16:54:00,
2013-12-03 12:00:00,50.0,33.8,29.81,NNW,336,6.9,-999.9,54,-99.99,,,-99.99,,2013-12-03 17:00:00,
2013-12-03 12:06:00,50.0,33.8,29.81,NNW,343,3.5,-999.9,54,-99.99,,,-99.99,,2013-12-03 17:06:00,
2013-12-03 12:12:00,51.8,33.8,29.80,NW,326,2.3,-999.9,50,-99.99,,,-99.99,,2013-12-03 17:12:00,
2013-12-03 12:18:00,51.8,33.8,29.80,NW,326,2.3,-999.9,50,-99.99,,,-99.99,,2013-12-03 17:18:00,
2013-12-03 12:24:00,51.8,33.8,29.80,WNW,282,2.3,-999.9,50,-99.99,,,-99.99,,2013-12-03 17:24:00,
2013-12-03 12:30:00,51.8,33.8,29.80,WNW,282,2.3,-999.9,50,-99.99,,,-99.99,,2013-12-03 17:30:00,
2013-12-03 12:36:00,51.8,32.0,29.79,WNW,283,6.9,-999.9,47,-99.99,,,-99.99,,2013-12-03 17:36:00,
2013-12-03 12:42:00,51.8,33.8,29.79,NW,312,1.2,-999.9,50,-99.99,,,-99.99,,2013-12-03 17:42:00,
2013-12-03 12:48:00,51.8,33.8,29.79,NW,312,1.2,-999.9,50,-99.99,,,-99.99,,2013-12-03 17:48:00,
2013-12-03 12:54:00,53.6,35.6,29.78,WSW,254,3.5,-999.9,51,-99.99,,,-99.99,,2013-12-03 17:54:00,
2013-12-03 13:00:00,53.6,35.6,29.78,WSW,254,3.5,-999.9,51,-99.99,,,-99.99,,2013-12-03 18:00:00,
2013-12-03 13:06:00,55.4,35.6,29.78,North,0,0.0,-999.9,47,-99.99,,,-99.99,,2013-12-03 18:06:00,
2013-12-03 13:12:00,55.4,33.8,29.77,North,0,0.0,-999.9,44,-99.99,,,-99.99,,2013-12-03 18:12:00,
2013-12-03 13:18:00,55.4,33.8,29.77,North,0,0.0,-999.9,44,-99.99,,,-99.99,,2013-12-03 18:18:00,
2013-12-03 13:24:00,55.4,35.6,29.77,SW,235,1.2,-999.9,47,-99.99,,,-99.99,,2013-12-03 18:24:00,
2013-12-03 13:30:00,55.4,35.6,29.77,SW,235,1.2,-999.9,47,-99.99,,,-99.99,,2013-12-03 18:30:00,
2013-12-03 13:36:00,55.4,33.8,29.77,North,0,0.0,-999.9,44,-99.99,,,-99.99,,2013-12-03 18:36:00,
2013-12-03 13:42:00,53.6,35.6,29.77,SSE,159,0.0,-999.9,51,-99.99,,,-99.99,,2013-12-03 18:42:00,
2013-12-03 13:48:00,53.6,35.6,29.77,SSE,159,0.0,-999.9,51,-99.99,,,-99.99,,2013-12-03 18:48:00,
2013-12-03 13:54:00,53.6,33.8,29.76,SSW,207,4.6,-999.9,47,-99.99,,,-99.99,,2013-12-03 18:54:00,
2013-12-03 14:00:00,53.6,33.8,29.76,SSW,207,4.6,-999.9,47,-99.99,,,-99.99,,2013-12-03 19:00:00,
2013-12-03 14:06:00,55.4,35.6,29.76,North,0,0.0,-999.9,47,-99.99,,,-99.99,,2013-12-03 19:06:00,
2013-12-03 14:12:00,57.2,35.6,29.77,SW,219,2.3,-999.9,44,-99.99,,,-99.99,,2013-12-03 19:12:00,
2013-12-03 14:18:00,57.2,35.6,29.77,SW,219,2.3,-999.9,44,-99.99,,,-99.99,,2013-12-03 19:18:00,
2013-12-03 14:24:00,55.4,35.6,29.77,South,191,1.2,-999.9,47,-99.99,,,-99.99,,2013-12-03 19:24:00,
2013-12-03 14:30:00,55.4,35.6,29.77,South,191,1.2,-999.9,47,-99.99,,,-99.99,,2013-12-03 19:30:00,
2013-12-03 14:36:00,55.4,33.8,29.77,West,275,8.1,-999.9,44,-99.99,,,-99.99,,2013-12-03 19:36:00,
2013-12-03 14:42:00,53.6,33.8,29.77,West,271,6.9,-999.9,47,-99.99,,,-99.99,,2013-12-03 19:42:00,
2013-12-03 14:48:00,53.6,33.8,29.77,West,271,6.9,-999.9,47,-99.99,,,-99.99,,2013-12-03 19:48:00,
2013-12-03 14:54:00,53.6,33.8,29.77,West,273,9.2,-999.9,47,-99.99,,,-99.99,,2013-12-03 19:54:00,
2013-12-03 15:00:00,53.6,33.8,29.77,West,273,9.2,-999.9,47,-99.99,,,-99.99,,2013-12-03 20:00:00,
2013-12-03 15:06:00,53.6,33.8,29.78,WSW,257,3.5,-999.9,47,-99.99,,,-99.99,,2013-12-03 20:06:00,
2013-12-03 15:12:00,55.4,35.6,29.78,WNW,301,3.5,-999.9,47,-99.99,,,-99.99,,2013-12-03 20:12:00,
2013-12-03 15:18:00,55.4,35.6,29.78,WNW,301,3.5,-999.9,47,-99.99,,,-99.99,,2013-12-03 20:18:00,
2013-12-03 15:24:00,53.6,33.8,29.79,SW,221,5.8,-999.9,47,-99.99,,,-99.99,,2013-12-03 20:24:00,
2013-12-03 15:30:00,53.6,33.8,29.79,SW,221,5.8,-999.9,47,-99.99,,,-99.99,,2013-12-03 20:30:00,
2013-12-03 15:36:00,53.6,33.8,29.79,WNW,297,5.8,-999.9,47,-99.99,,,-99.99,,2013-12-03 20:36:00,
2013-12-03 15:42:00,53.6,33.8,29.80,WSW,239,1.2,-999.9,47,-99.99,,,-99.99,,2013-12-03 20:42:00,
2013-12-03 15:48:00,53.6,33.8,29.80,WSW,239,1.2,-999.9,47,-99.99,,,-99.99,,2013-12-03 20:48:00,
2013-12-03 15:54:00,53.6,33.8,29.80,SSW,208,0.0,-999.9,47,-99.99,,,-99.99,,2013-12-03 20:54:00,
2013-12-03 16:00:00,53.6,33.8,29.80,SSW,208,0.0,-999.9,47,-99.99,,,-99.99,,2013-12-03 21:00:00,
2013-12-03 16:06:00,53.6,35.6,29.80,North,0,0.0,-999.9,51,-99.99,,,-99.99,,2013-12-03 21:06:00,
2013-12-03 16:12:00,53.6,35.6,29.80,North,0,0.0,-999.9,51,-99.99,,,-99.99,,2013-12-03 21:12:00,
2013-12-03 16:18:00,53.6,35.6,29.80,North,0,0.0,-999.9,51,-99.99,,,-99.99,,2013-12-03 21:18:00,
2013-12-03 16:24:00,53.6,35.6,29.81,WSW,237,3.5,-999.9,51,-99.99,,,-99.99,,2013-12-03 21:24:00,
2013-12-03 16:30:00,53.6,35.6,29.81,WSW,237,3.5,-999.9,51,-99.99,,,-99.99,,2013-12-03 21:30:00,
2013-12-03 16:36:00,53.6,35.6,29.82,WSW,245,2.3,-999.9,51,-99.99,,,-99.99,,2013-12-03 21:36:00,
2013-12-03 16:42:00,53.6,35.6,29.82,WSW,240,0.0,-999.9,51,-99.99,,,-99.99,,2013-12-03 21:42:00,
2013-12-03 16:48:00,53.6,35.6,29.82,WSW,240,0.0,-999.9,51,-99.99,,,-99.99,,2013-12-03 21:48:00,
2013-12-03 16:54:00,53.6,35.6,29.83,North,0,0.0,-999.9,51,-99.99,,,-99.99,,2013-12-03 21:54:00,
2013-12-03 17:00:00,53.6,35.6,29.83,North,0,0.0,-999.9,51,-99.99,,,-99.99,,2013-12-03 22:00:00,
2013-12-03 17:06:00,51.8,33.8,29.83,WSW,246,0.0,-999.9,50,-99.99,,,-99.99,,2013-12-03 22:06:00,
2013-12-03 17:12:00,51.8,33.8,29.83,West,272,3.5,-999.9,50,-99.99,,,-99.99,,2013-12-03 22:12:00,
2013-12-03 17:18:00,51.8,33.8,29.83,West,272,3.5,-999.9,50,-99.99,,,-99.99,,2013-12-03 22:18:00,
2013-12-03 17:24:00,53.6,35.6,29.84,West,265,1.2,-999.9,51,-99.99,,,-99.99,,2013-12-03 22:24:00,
2013-12-03 17:30:00,53.6,35.6,29.84,West,265,1.2,-999.9,51,-99.99,,,-99.99,,2013-12-03 22:30:00,
2013-12-03 17:36:00,53.6,35.6,29.84,West,263,2.3,-999.9,51,-99.99,,,-99.99,,2013-12-03 22:36:00,
2013-12-03 17:42:00,51.8,33.8,29.84,North,0,0.0,-999.9,50,-99.99,,,-99.99,,2013-12-03 22:42:00,
2013-12-03 17:48:00,51.8,33.8,29.84,North,0,0.0,-999.9,50,-99.99,,,-99.99,,2013-12-03 22:48:00,
2013-12-03 17:54:00,51.8,33.8,29.85,NW,305,4.6,-999.9,50,-99.99,,,-99.99,,2013-12-03 22:54:00,
2013-12-03 18:00:00,51.8,33.8,29.85,NW,305,4.6,-999.9,50,-99.99,,,-99.99,,2013-12-03 23:00:00,
2013-12-03 18:06:00,51.8,33.8,29.86,NW,312,6.9,-999.9,50,-99.99,,,-99.99,,2013-12-03 23:06:00,
2013-12-03 18:12:00,51.8,35.6,29.85,NNW,341,3.5,-999.9,54,-99.99,,,-99.99,,2013-12-03 23:12:00,
2013-12-03 18:18:00,51.8,35.6,29.85,NNW,341,3.5,-999.9,54,-99.99,,,-99.99,,2013-12-03 23:18:00,
2013-12-03 18:24:00,50.0,33.8,29.86,NNE,14,2.3,-999.9,54,-99.99,,,-99.99,,2013-12-03 23:24:00,
2013-12-03 18:30:00,50.0,33.8,29.86,NNE,14,2.3,-999.9,54,-99.99,,,-99.99,,2013-12-03 23:30:00,
2013-12-03 18:36:00,50.0,33.8,29.86,NE,37,8.1,-999.9,54,-99.99,,,-99.99,,2013-12-03 23:36:00,
2013-12-03 19:32:00,48.2,35.6,29.88,NE,35,6.9,-999.9,62,-99.99,,,-99.99,,2013-12-04 00:32:00,
2013-12-03 19:38:00,48.2,35.6,29.88,NE,35,6.9,-999.9,62,-99.99,,,-99.99,,2013-12-04 00:38:00,
2013-12-03 19:44:00,46.4,35.6,29.88,NE,52,2.3,-999.9,66,-99.99,,,-99.99,,2013-12-04 00:44:00,
2013-12-03 19:50:00,46.4,35.6,29.88,NE,52,2.3,-999.9,66,-99.99,,,-99.99,,2013-12-04 00:50:00,
2013-12-03 19:56:00,46.4,35.6,29.89,North,0,0.0,-999.9,66,-99.99,,,-99.99,,2013-12-04 00:56:00,
2013-12-03 20:02:00,46.4,35.6,29.89,North,0,0.0,-999.9,66,-99.99,,,-99.99,,2013-12-04 01:02:00,
2013-12-03 20:08:00,46.4,35.6,29.89,North,0,0.0,-999.9,66,-99.99,,,-99.99,,2013-12-04 01:08:00,
2013-12-03 20:14:00,44.6,35.6,29.90,North,0,0.0,-999.9,71,-99.99,,,-99.99,,2013-12-04 01:14:00,
2013-12-03 20:20:00,44.6,35.6,29.90,North,0,0.0,-999.9,71,-99.99,,,-99.99,,2013-12-04 01:20:00,
2013-12-03 20:26:00,44.6,35.6,29.89,North,0,0.0,-999.9,71,-99.99,,,-99.99,,2013-12-04 01:26:00,
2013-12-03 20:32:00,44.6,35.6,29.90,ENE,58,0.0,-999.9,71,-99.99,,,-99.99,,2013-12-04 01:32:00,
2013-12-03 20:38:00,44.6,35.6,29.90,ENE,58,0.0,-999.9,71,-99.99,,,-99.99,,2013-12-04 01:38:00,
2013-12-03 20:44:00,44.6,33.8,29.90,ENE,63,2.3,-999.9,66,-99.99,,,-99.99,,2013-12-04 01:44:00,
2013-12-03 20:50:00,44.6,33.8,29.90,ENE,63,2.3,-999.9,66,-99.99,,,-99.99,,2013-12-04 01:50:00,
2013-12-03 20:56:00,44.6,35.6,29.90,ENE,57,3.5,-999.9,71,-99.99,,,-99.99,,2013-12-04 01:56:00,
2013-12-03 21:02:00,44.6,35.6,29.89,NE,56,1.2,-999.9,71,-99.99,,,-99.99,,2013-12-04 02:02:00,
2013-12-03 21:08:00,44.6,35.6,29.89,NE,56,1.2,-999.9,71,-99.99,,,-99.99,,2013-12-04 02:08:00,
2013-12-03 21:14:00,44.6,35.6,29.89,NE,48,5.8,-999.9,71,-99.99,,,-99.99,,2013-12-04 02:14:00,
2013-12-03 21:20:00,44.6,35.6,29.89,NE,48,5.8,-999.9,71,-99.99,,,-99.99,,2013-12-04 02:20:00,
2013-12-03 21:26:00,44.6,35.6,29.90,NNE,33,3.5,-999.9,71,-99.99,,,-99.99,,2013-12-04 02:26:00,
2013-12-03 21:32:00,44.6,35.6,29.90,NNE,30,0.0,-999.9,71,-99.99,,,-99.99,,2013-12-04 02:32:00,
2013-12-03 21:38:00,44.6,35.6,29.90,NNE,30,0.0,-999.9,71,-99.99,,,-99.99,,2013-12-04 02:38:00,
2013-12-03 21:44:00,44.6,35.6,29.90,NNE,30,0.0,-999.9,71,-99.99,,,-99.99,,2013-12-04 02:44:00,
2013-12-03 21:50:00,44.6,35.6,29.90,NNE,30,0.0,-999.9,71,-99.99,,,-99.99,,2013-12-04 02:50:00,
2013-12-03 21:56:00,44.6,35.6,29.90,NE,42,1.2,-999.9,71,-99.99,,,-99.99,,2013-12-04 02:56:00,
2013-12-03 22:02:00,44.6,35.6,29.90,NNW,347,2.3,-999.9,71,-99.99,,,-99.99,,2013-12-04 03:02:00,
2013-12-03 22:08:00,44.6,35.6,29.90,NNW,347,2.3,-999.9,71,-99.99,,,-99.99,,2013-12-04 03:08:00,
2013-12-03 22:14:00,44.6,35.6,29.90,North,353,2.3,-999.9,71,-99.99,,,-99.99,,2013-12-04 03:14:00,
2013-12-03 22:20:00,44.6,35.6,29.90,North,353,2.3,-999.9,71,-99.99,,,-99.99,,2013-12-04 03:20:00,
2013-12-03 22:26:00,44.6,35.6,29.90,NNE,14,1.2,-999.9,71,-99.99,,,-99.99,,2013-12-04 03:26:00,
2013-12-03 22:32:00,44.6,35.6,29.91,NNW,347,3.5,-999.9,71,-99.99,,,-99.99,,2013-12-04 03:32:00,
2013-12-03 22:38:00,44.6,35.6,29.91,NNW,347,3.5,-999.9,71,-99.99,,,-99.99,,2013-12-04 03:38:00,
2013-12-03 22:44:00,44.6,35.6,29.92,North,354,5.8,-999.9,71,-99.99,,,-99.99,,2013-12-04 03:44:00,
2013-12-03 22:50:00,44.6,35.6,29.92,North,354,5.8,-999.9,71,-99.99,,,-99.99,,2013-12-04 03:50:00,
2013-12-03 23:02:00,42.8,33.8,29.92,North,5,0.0,-999.9,70,-99.99,,,-99.99,,2013-12-04 04:02:00,
2013-12-03 23:08:00,42.8,33.8,29.92,North,5,0.0,-999.9,70,-99.99,,,-99.99,,2013-12-04 04:08:00,
2013-12-03 23:14:00,42.8,33.8,29.93,North,350,5.8,-999.9,70,-99.99,,,-99.99,,2013-12-04 04:14:00,
2013-12-03 23:20:00,42.8,33.8,29.93,North,350,5.8,-999.9,70,-99.99,,,-99.99,,2013-12-04 04:20:00,
2013-12-03 23:26:00,42.8,33.8,29.93,NE,36,1.2,-999.9,70,-99.99,,,-99.99,,2013-12-04 04:26:00,
2013-12-03 23:32:00,42.8,33.8,29.93,North,10,3.5,-999.9,70,-99.99,,,-99.99,,2013-12-04 04:32:00,
2013-12-03 23:38:00,42.8,33.8,29.93,North,10,3.5,-999.9,70,-99.99,,,-99.99,,2013-12-04 04:38:00,
2013-12-03 23:44:00,42.8,33.8,29.93,NNE,15,1.2,-999.9,70,-99.99,,,-99.99,,2013-12-04 04:44:00,
2013-12-03 23:50:00,42.8,33.8,29.93,NNE,15,1.2,-999.9,70,-99.99,,,-99.99,,2013-12-04 04:50:00,
2013-12-03 23:56:00,42.8,35.6,29.93,NNE,16,3.5,-999.9,76,-99.99,,,-99.99,,2013-12-04 04:56:00,